map of EGOM home
EGOM - Other
Location
City:  Spadeadam, Cumbria, England, United Kingdom
Name:RAF Spadeadam
ICAO:EGOM

Details
Type:Other
Latitude:5501'30"N (55.025000)
Longitude:236'08"W (-2.602221)
Elevation:1066 ft (325 m)
Variation:1.67W (WMM2015 magnetic declination)
0.16 annual change

Time
Time Zone:UTC+0 (DST+1)
Local Time:

Weather
METAR:EGOM 131950Z AUTO 11009KT 9999 NCD 01/M01 Q1020

Related Locations
Nearby:
Farthest:SZS: 11741 mi / 18895 km
Ryan's Creek, Stewart Island, STL, NZ

Find:

   beyond  
but within

Other Information
Maps:
NOTAMs:
Links:
Sources:

  
  • flag of United Kingdom
  • flag of England
  • flag of Royal Air Force
  

Sectional Chart

Flight Planning
at skyvector.com

Satellite Image

Google Maps Satellite view

 

Copyright © 2004-2018 Karl L. Swartz. All rights reserved.
The Great Circle Mapper name and logo are trademarks of the Great Circle Mapper.
All other trademarks mentioned herein belong to their respective owners.
Please see credits for attibutions and further copyright information.

  Follow gcmap on Facebook Follow gcmap on Twitter Follow gcmap on Google+ GCmap on LinkedIn

hCard Microformat

Geo Microformat